User: anonymous   Login
Location: Beverley
(50.2667°N, 107.9667°W)
Time: 03:20:47
(UTC+00:00)
Language:

NOAA 15 - Orbit

View from above orbital plane
View from above orbital plane
View from above satellite
View from above satellite

Ground track
Ground track

The orbit data is extracted from the following two-line orbital elements,

1 25338U 98030A   22179.78564227  .00000122  00000-0  69101-4 0  9999
2 25338  98.6428 209.1727 0009156 263.6988  96.3150 14.26143740254884
Epoch (UTC): 28 June 2022 18:51:19
Eccentricity: 0.0009156
inclination: 98.6428°
perigee height: 798 km
apogee height: 811 km
right ascension of ascending node: 209.1727°
argument of perigee: 263.6988°
revolutions per day: 14.26143740
mean anomaly at epoch: 96.3150°
orbit number at epoch: 25488

The dashed part of the orbit path shows where the satellite is in the earth's shadow,  

DLR